Погода в Санта-Крус-дель-Киче

Гватемала     15°01′45″N   91°08′59″W
темп.,
°C
ветер,
м/с
пор.,
м/с
влажн.,
%
обл.,
%
осадки,
мм/ч
давл.,
гПа
погр.,
м
15 августа, пн
пн1500:00+12ю019573 4.1 101911
03:00+11юз119491 0.1 101710
06:00+11ю119487 0.1 101711
09:00+17ссв117371 0.3 1016549
12:00+20в2362100 1.8 10141299
15:00+19в3470100 2.3 1012912
18:00+14в3596100 6.7 1015199
21:00+13сз019697 2.5 101828
16 августа, вт
вт1600:00+12всв119596 2.7 101916
03:00+12зюз229599 1.1 101639
06:00+11юз229277 1.2 101618
09:00+18всв1269100 0.1 1016629
12:00+20всв346155 1.5 10141540
15:00+19в346998 2.5 10121097
18:00+14в2493100 4.4 101584
21:00+12юв119391 1.3 101817
17 августа, ср
ср1700:00+11юз1192100 1.3 101811
03:00+10юз119311 0.0 101712
06:00+10зюз11945 0.0 101813
09:00+17ссв226214 0.0 1017699
12:00+21св334332 0.0 10141765
15:00+18в346889 0.3 1013701
18:00+15в249364 1.1 1015189
21:00+13в119863 0.6 101847
18 августа, чт
чт1800:00+12всв019791 0.7 101818
03:00+12сз0099100 0.1 101662
06:00+13ю0197100 0.1 101718
09:00+17всв118588 0.5 1016602
12:00+16вюв238999 3.0 1015457
15:00+15юв2394100 4.4 1014219
18:00+14ююз1195100 7.4 101524
21:00+12з1198100 1.6 101818
19 августа, пт
пт1900:00+12ююз1197100 1.8 101717
03:00+12ююз009666 0.1 101612
06:00+11ю119726 0.1 101710
09:00+17всв238165 0.3 1017692
12:00+21в46469 0.7 10131880
15:00+21в455159 0.2 10121850
18:00+15в248624 0.9 1015156
21:00+11ю119499 0.1 101910